{"data":{"norad_id":52106,"epoch":"2026-05-25T03:48:13.116096Z","epoch_age_seconds":57307,"freshness":"FRESH","line1":"1 52106U 22029U   26145.15848514 -.00000378  00000+0 -56448-5 0  9994","line2":"2 52106  53.2139 105.8359 0001559  68.5761 291.5397 15.08844681232191","mean_motion":15.08844681,"eccentricity":0.0001559,"inclination_deg":53.2139,"raan_deg":105.8359,"arg_perigee_deg":68.5761,"mean_anomaly_deg":291.5397,"bstar":-5.6448e-6,"rev_number":23219,"period_min":95.43725859481,"perigee_km":538.65058573472,"apogee_km":540.80757637879,"semimajor_km":6917.8660810568,"source":"CELESTRAK","updated_at":"2026-05-25T13:38:17.072232Z"}}